BINAR-3 (60957 NORAD) Tracking and Keplerian Element Data

This shows tracking and keplerian element data for the satellite.

Feedback or suggestion? Click here.




ElementValue
Catalog60957
NameBINAR-3
Epoch Orbit891
Epoch Day286.8174859
Epoch Year2024
RAAN89.7051
Inclination51.6258
Eccentricity0.0002874
Argument of Perigee314.3074
Mean Anonmoly45.7688
Mean Motion15.71241782
Decay Rate0.00368567
L11 60957U 98067WX 24286.81748590 .00368567 00000+0 27295-2 0 9992
L22 60957 51.6258 89.7051 0002874 314.3074 45.7688 15.71241782 8913



Live tracking and technical data element details for BINAR-3 (NORAD 60957). BINAR-3 can be tracked NOW for your location showing map with azimuth and elevation plus other details from your city location.







IsCatalogInMostPopularTable: catalog: 60957, numindb: 7
Update: records affected: 1



GetName: 60957 BINAR-3

Hit Count: updated at: Wed, 04 Dec 2024 18:02:41 GMT